,,,PA_Meas_PMT16A,,PR_Meas_QMR101_102,,RH_Meas_QMH101,,SR_Meas_QMS101,,TA_Meas_QMH101,,GenWind,,GenWind,
date,time,status,PA,status,PR,status,RH,status,SR,status,TA,status,DirAvg,status,SpdAvg,
2010-07-08, 00:00:04,VALID,1006.06,VALID,0,VALID,85.2222,VALID,0,VALID,25.2027,VALID,347,VALID,0.699609,
2010-07-08, 00:01:04,VALID,1006.02,VALID,0,VALID,85.3977,VALID,0,VALID,25.2007,VALID,345,VALID,0.0191406,
2010-07-08, 00:02:04,VALID,1006,VALID,0,VALID,85.3367,VALID,0,VALID,25.2221,VALID,355,VALID,0.805469,
2010-07-08, 00:03:04,VALID,1005.97,VALID,0,VALID,85.3367,VALID,0,VALID,25.2007,VALID,306,VALID,0.530859,
2010-07-08, 00:04:04,VALID,1005.96,VALID,0,VALID,84.8179,VALID,0,VALID,25.2202,VALID,292,VALID,1.2332,
2010-07-08, 00:05:04,VALID,1005.94,VALID,0,VALID,84.9323,VALID,0,VALID,25.2611,VALID,290,VALID,0.349609,
2010-07-08, 00:06:04,VALID,1006.01,VALID,0,VALID,84.7416,VALID,0,VALID,25.2806,VALID,339,VALID,0.208594,
2010-07-08, 00:07:04,VALID,1006.02,VALID,0,VALID,84.7263,VALID,0,VALID,25.2592,VALID,358,VALID,0.577344,
2010-07-08, 00:08:04,VALID,1006.04,VALID,0,VALID,84.7721,VALID,0,VALID,25.2806,VALID,357,VALID,0.398438,
2010-07-08, 00:09:04,VALID,1006.07,VALID,0,VALID,84.9171,VALID,0,VALID,25.2611,VALID,357,VALID,0.267188,
2010-07-08, 00:10:04,VALID,1006.04,VALID,0,VALID,84.8942,VALID,0,VALID,25.2806,VALID,330,VALID,0.513281,
2010-07-08, 00:11:04,VALID,1006.05,VALID,0,VALID,85.3214,VALID,0,VALID,25.2202,VALID,330,VALID,0.393359,
2010-07-08, 00:12:04,VALID,1006.04,VALID,0,VALID,85.6494,VALID,0,VALID,25.2007,VALID,331,VALID,0.0398437,
2010-07-08, 00:13:04,VALID,1006.05,VALID,0,VALID,85.9088,VALID,0,VALID,25.1813,VALID,331,VALID,0.00429688,
2010-07-08, 00:14:04,VALID,1006.05,VALID,0,VALID,86.0995,VALID,0,VALID,25.1423,VALID,331,VALID,0.128906,
2010-07-08, 00:15:04,VALID,1006.03,VALID,0,VALID,86.0995,VALID,0,VALID,25.1423,VALID,331,VALID,0.13125,
2010-07-08, 00:16:04,VALID,1006.03,VALID,0,VALID,85.9775,VALID,0,VALID,25.1442,VALID,350,VALID,0.550391,
2010-07-08, 00:17:04,VALID,1006.04,VALID,0,VALID,85.9165,VALID,0,VALID,25.1229,VALID,355,VALID,0.161719,
2010-07-08, 00:18:04,VALID,1006.02,VALID,0,VALID,85.8402,VALID,0,VALID,25.1423,VALID,329,VALID,0.370313,
2010-07-08, 00:19:04,VALID,1006.03,VALID,0,VALID,85.9012,VALID,0,VALID,25.1423,VALID,328,VALID,0,
2010-07-08, 00:20:04,VALID,1006.02,VALID,0,VALID,85.8096,VALID,0,VALID,25.1423,VALID,332,VALID,0.281641,
2010-07-08, 00:21:04,VALID,1006.02,VALID,0,VALID,85.7105,VALID,0,VALID,25.1229,VALID,350,VALID,0.596875,
2010-07-08, 00:22:04,VALID,1006.01,VALID,0,VALID,85.6342,VALID,0,VALID,25.1637,VALID,334,VALID,0.392188,
2010-07-08, 00:23:04,VALID,1005.99,VALID,0,VALID,85.4511,VALID,0,VALID,25.1423,VALID,347,VALID,0.839063,
2010-07-08, 00:24:04,VALID,1005.98,VALID,0,VALID,85.4282,VALID,0,VALID,25.1637,VALID,7,VALID,0.265234,
2010-07-08, 00:25:04,VALID,1005.96,VALID,0,VALID,85.4511,VALID,0,VALID,25.1637,VALID,6,VALID,0.329688,
2010-07-08, 00:26:04,VALID,1005.94,VALID,0,VALID,85.4206,VALID,0,VALID,25.1442,VALID,326,VALID,0.583594,
2010-07-08, 00:27:04,VALID,1005.93,VALID,0,VALID,85.5884,VALID,0,VALID,25.1229,VALID,354,VALID,0.298047,
2010-07-08, 00:28:04,VALID,1005.93,VALID,0,VALID,85.7181,VALID,0,VALID,25.1229,VALID,354,VALID,0.578906,
2010-07-08, 00:29:04,VALID,1005.9,VALID,0,VALID,85.7562,VALID,0,VALID,25.1053,VALID,344,VALID,0.521484,
2010-07-08, 00:30:04,VALID,1005.93,VALID,0,VALID,85.9393,VALID,0,VALID,25.0858,VALID,329,VALID,0.388281,
2010-07-08, 00:31:04,VALID,1005.91,VALID,0,VALID,86.1987,VALID,0,VALID,25.045,VALID,329,VALID,0.126172,
2010-07-08, 00:32:04,VALID,1005.93,VALID,0,VALID,86.2674,VALID,0,VALID,25.006,VALID,330,VALID,0.21875,
2010-07-08, 00:33:04,VALID,1005.94,VALID,0,VALID,86.542,VALID,0.100563,VALID,25.006,VALID,330,VALID,0.455078,
2010-07-08, 00:34:04,VALID,1005.94,VALID,0,VALID,86.8395,VALID,0,VALID,24.9476,VALID,331,VALID,0.489844,
2010-07-08, 00:35:04,VALID,1005.95,VALID,0,VALID,87.2134,VALID,0,VALID,24.9106,VALID,331,VALID,0.26875,
2010-07-08, 00:36:04,VALID,1005.96,VALID,0,VALID,87.3888,VALID,0,VALID,24.8308,VALID,330,VALID,0.363281,
2010-07-08, 00:37:04,VALID,1005.91,VALID,0,VALID,87.6482,VALID,0,VALID,24.7919,VALID,331,VALID,0.433594,
2010-07-08, 00:38:04,VALID,1005.89,VALID,0,VALID,87.9457,VALID,0,VALID,24.7529,VALID,337,VALID,0.265625,
2010-07-08, 00:39:04,VALID,1005.91,VALID,0,VALID,88.3272,VALID,0.100563,VALID,24.6945,VALID,337,VALID,0.0230469,
2010-07-08, 00:40:04,VALID,1005.9,VALID,0,VALID,88.6628,VALID,0,VALID,24.675,VALID,337,VALID,0.155859,
2010-07-08, 00:41:04,VALID,1005.88,VALID,0,VALID,88.8841,VALID,0,VALID,24.638,VALID,337,VALID,0.165625,
2010-07-08, 00:42:04,VALID,1005.87,VALID,0,VALID,89.0061,VALID,0,VALID,24.638,VALID,337,VALID,0,
2010-07-08, 00:43:04,VALID,1005.83,VALID,0,VALID,89.1053,VALID,0,VALID,24.5972,VALID,337,VALID,0,
2010-07-08, 00:44:04,VALID,1005.81,VALID,0,VALID,89.1892,VALID,0.100563,VALID,24.5777,VALID,337,VALID,0,
2010-07-08, 00:45:04,VALID,1005.81,VALID,0,VALID,89.2426,VALID,0,VALID,24.6185,VALID,337,VALID,0,
2010-07-08, 00:46:04,VALID,1005.82,VALID,0,VALID,89.2884,VALID,0.100563,VALID,24.5758,VALID,347,VALID,0.254687,
2010-07-08, 00:47:04,VALID,1005.82,VALID,0,VALID,89.113,VALID,0,VALID,24.5972,VALID,352,VALID,0.656641,
2010-07-08, 00:48:04,VALID,1005.8,VALID,0,VALID,88.8993,VALID,0,VALID,24.6361,VALID,352,VALID,0,
2010-07-08, 00:49:04,VALID,1005.81,VALID,0,VALID,88.701,VALID,0,VALID,24.6556,VALID,360,VALID,0.6125,
2010-07-08, 00:50:04,VALID,1005.8,VALID,0,VALID,88.7162,VALID,0,VALID,24.675,VALID,360,VALID,0.370313,
2010-07-08, 00:51:04,VALID,1005.78,VALID,0,VALID,88.8078,VALID,0,VALID,24.6361,VALID,358,VALID,0.479688,
2010-07-08, 00:52:04,VALID,1005.77,VALID,0,VALID,88.8612,VALID,0,VALID,24.5972,VALID,345,VALID,0.554688,
2010-07-08, 00:53:04,VALID,1005.74,VALID,0,VALID,89.0595,VALID,0,VALID,24.5777,VALID,348,VALID,0.409766,
2010-07-08, 00:54:04,VALID,1005.72,VALID,0,VALID,89.2198,VALID,0,VALID,24.5582,VALID,348,VALID,0,
2010-07-08, 00:55:04,VALID,1005.73,VALID,0,VALID,89.3418,VALID,0,VALID,24.5388,VALID,348,VALID,0,
2010-07-08, 00:56:04,VALID,1005.71,VALID,0,VALID,89.3418,VALID,0,VALID,24.5582,VALID,353,VALID,0.851563,
2010-07-08, 00:57:04,VALID,1005.69,VALID,0,VALID,89.1969,VALID,0,VALID,24.5758,VALID,354,VALID,0.735547,
2010-07-08, 00:58:04,VALID,1005.67,VALID,0,VALID,89.296,VALID,0,VALID,24.5972,VALID,355,VALID,0.564453,
2010-07-08, 00:59:04,VALID,1005.68,VALID,0,VALID,89.5631,VALID,0,VALID,24.5582,VALID,354,VALID,0.709766,
2010-07-08, 01:00:04,VALID,1005.68,VALID,0,VALID,90.3565,VALID,0,VALID,24.4804,VALID,354,VALID,0.651563,
2010-07-08, 01:01:04,VALID,1005.66,VALID,0,VALID,91.1956,VALID,0,VALID,24.4025,VALID,350,VALID,0.517969,
2010-07-08, 01:02:04,VALID,1005.66,VALID,0,VALID,94.1633,VALID,0,VALID,24.3246,VALID,350,VALID,0.564062,
2010-07-08, 01:03:04,VALID,1005.65,VALID,0,VALID,96.5435,VALID,0,VALID,24.2857,VALID,357,VALID,0.290234,
2010-07-08, 01:04:04,VALID,1005.61,VALID,0,VALID,98.8398,VALID,0,VALID,24.2468,VALID,357,VALID,0.451172,
2010-07-08, 01:05:04,VALID,1005.62,VALID,0,VALID,99.8544,VALID,0,VALID,24.2273,VALID,338,VALID,0.455859,
2010-07-08, 01:06:04,VALID,1005.62,VALID,0,VALID,100.243,VALID,0,VALID,24.2097,VALID,352,VALID,0.585156,
2010-07-08, 01:07:04,VALID,1005.57,VALID,0,VALID,100.404,VALID,0,VALID,24.2273,VALID,352,VALID,0.501562,
2010-07-08, 01:08:04,VALID,1005.56,VALID,0,VALID,100.396,VALID,0,VALID,24.2273,VALID,352,VALID,0.326172,
2010-07-08, 01:09:04,VALID,1005.53,VALID,0,VALID,100.312,VALID,0,VALID,24.2468,VALID,284,VALID,0.526563,
2010-07-08, 01:10:04,VALID,1005.49,VALID,0,VALID,100.022,VALID,0,VALID,24.307,VALID,287,VALID,0.0839844,
2010-07-08, 01:11:04,VALID,1005.49,VALID,0,VALID,99.5569,VALID,0,VALID,24.3654,VALID,287,VALID,0.222656,
2010-07-08, 01:12:04,VALID,1005.49,VALID,0,VALID,97.8404,VALID,0,VALID,24.4025,VALID,334,VALID,0.541406,
2010-07-08, 01:13:04,VALID,1005.46,VALID,0,VALID,93.4156,VALID,0,VALID,24.4822,VALID,345,VALID,0.722656,
2010-07-08, 01:14:04,VALID,1005.45,VALID,0,VALID,91.2643,VALID,0,VALID,24.4998,VALID,6,VALID,0.161719,
2010-07-08, 01:15:04,VALID,1005.43,VALID,0,VALID,90.593,VALID,0,VALID,24.5601,VALID,349,VALID,0.707812,
2010-07-08, 01:16:04,VALID,1005.39,VALID,0,VALID,90.12,VALID,0,VALID,24.5582,VALID,359,VALID,0.571094,
2010-07-08, 01:17:04,VALID,1005.42,VALID,0,VALID,89.769,VALID,0,VALID,24.5777,VALID,360,VALID,0.448047,
2010-07-08, 01:18:04,VALID,1005.42,VALID,0,VALID,89.4791,VALID,0,VALID,24.6185,VALID,356,VALID,0.834766,
2010-07-08, 01:19:04,VALID,1005.39,VALID,0,VALID,89.2808,VALID,0,VALID,24.6166,VALID,350,VALID,0.7625,
2010-07-08, 01:20:04,VALID,1005.38,VALID,0,VALID,89.0061,VALID,0,VALID,24.6574,VALID,349,VALID,0.606641,
2010-07-08, 01:21:04,VALID,1005.36,VALID,0,VALID,88.8231,VALID,0,VALID,24.6769,VALID,358,VALID,0.561719,
2010-07-08, 01:22:04,VALID,1005.35,VALID,0,VALID,88.9146,VALID,0,VALID,24.6166,VALID,4,VALID,0.684766,
2010-07-08, 01:23:04,VALID,1005.37,VALID,0,VALID,89.0595,VALID,0,VALID,24.5582,VALID,291,VALID,0.892578,
2010-07-08, 01:24:04,VALID,1005.34,VALID,0,VALID,89.0977,VALID,0,VALID,24.599,VALID,307,VALID,0.430469,
2010-07-08, 01:25:04,VALID,1005.31,VALID,0,VALID,88.8383,VALID,0,VALID,24.6185,VALID,342,VALID,0.757813,
2010-07-08, 01:26:04,VALID,1005.31,VALID,0,VALID,88.5866,VALID,0,VALID,24.6574,VALID,356,VALID,0.844922,
2010-07-08, 01:27:04,VALID,1005.29,VALID,0,VALID,88.2967,VALID,0,VALID,24.6556,VALID,322,VALID,0.601953,
2010-07-08, 01:28:04,VALID,1005.31,VALID,0,VALID,88.0296,VALID,0,VALID,24.6945,VALID,281,VALID,1.32187,
2010-07-08, 01:29:04,VALID,1005.26,VALID,0,VALID,87.9305,VALID,0,VALID,24.714,VALID,298,VALID,0.235547,
2010-07-08, 01:30:04,VALID,1005.24,VALID,0,VALID,87.7245,VALID,0,VALID,24.7529,VALID,336,VALID,0.701563,
2010-07-08, 01:31:04,VALID,1005.26,VALID,0,VALID,87.549,VALID,0,VALID,24.7724,VALID,350,VALID,0.650781,
2010-07-08, 01:32:04,VALID,1005.22,VALID,0,VALID,87.4651,VALID,0,VALID,24.8132,VALID,355,VALID,0.524609,
2010-07-08, 01:33:04,VALID,1005.18,VALID,0,VALID,87.4727,VALID,0,VALID,24.8132,VALID,360,VALID,0.553125,
2010-07-08, 01:34:04,VALID,1005.19,VALID,0,VALID,87.2973,VALID,0,VALID,24.8327,VALID,355,VALID,0.714453,
2010-07-08, 01:35:04,VALID,1005.18,VALID,0,VALID,87.16,VALID,0,VALID,24.8503,VALID,353,VALID,0.185547,
2010-07-08, 01:36:04,VALID,1005.18,VALID,0,VALID,87.0608,VALID,0,VALID,24.8697,VALID,327,VALID,0.0375,
2010-07-08, 01:37:04,VALID,1005.18,VALID,0,VALID,87.0837,VALID,0,VALID,24.8484,VALID,327,VALID,0.000390625,
2010-07-08, 01:38:04,VALID,1005.15,VALID,0,VALID,86.9921,VALID,0,VALID,24.8697,VALID,326,VALID,0.0675781,
2010-07-08, 01:39:04,VALID,1005.15,VALID,0,VALID,86.9998,VALID,0,VALID,24.8503,VALID,326,VALID,0.0753906,
2010-07-08, 01:40:04,VALID,1005.15,VALID,0,VALID,87.1447,VALID,0,VALID,24.8308,VALID,327,VALID,0.114063,
2010-07-08, 01:41:04,VALID,1005.12,VALID,0,VALID,87.16,VALID,0,VALID,24.8327,VALID,354,VALID,0.25625,
2010-07-08, 01:42:04,VALID,1005.1,VALID,0,VALID,87.221,VALID,0,VALID,24.8113,VALID,354,VALID,0,
2010-07-08, 01:43:04,VALID,1005.12,VALID,0,VALID,87.3583,VALID,0,VALID,24.7724,VALID,355,VALID,0.351563,
2010-07-08, 01:44:04,VALID,1005.15,VALID,0,VALID,87.4193,VALID,0,VALID,24.7937,VALID,358,VALID,0.0128906,
2010-07-08, 01:45:04,VALID,1005.18,VALID,0,VALID,87.5872,VALID,0,VALID,24.7529,VALID,358,VALID,0.130859,
2010-07-08, 01:46:04,VALID,1005.18,VALID,0,VALID,87.6711,VALID,0,VALID,24.7335,VALID,358,VALID,0.0710938,
2010-07-08, 01:47:04,VALID,1005.19,VALID,0,VALID,87.7626,VALID,0.100563,VALID,24.7548,VALID,355,VALID,0.991016,
2010-07-08, 01:48:04,VALID,1005.17,VALID,0,VALID,87.7932,VALID,0,VALID,24.7724,VALID,354,VALID,1.24961,
2010-07-08, 01:49:04,VALID,1005.17,VALID,0,VALID,87.5643,VALID,0,VALID,24.79,VALID,328,VALID,0.453906,
2010-07-08, 01:50:04,VALID,1005.15,VALID,0,VALID,87.4727,VALID,0,VALID,24.8113,VALID,288,VALID,0.131641,
2010-07-08, 01:51:04,VALID,1005.18,VALID,0,VALID,87.4193,VALID,0,VALID,24.8095,VALID,288,VALID,0,
2010-07-08, 01:52:04,VALID,1005.2,VALID,0,VALID,87.3965,VALID,0,VALID,24.79,VALID,294,VALID,0.212109,
2010-07-08, 01:53:04,VALID,1005.23,VALID,0,VALID,87.4651,VALID,0,VALID,24.79,VALID,356,VALID,0.469922,
2010-07-08, 01:54:04,VALID,1005.26,VALID,0,VALID,87.4422,VALID,0,VALID,24.8113,VALID,355,VALID,0.484375,
2010-07-08, 01:55:04,VALID,1005.26,VALID,0,VALID,87.5948,VALID,0,VALID,24.8327,VALID,340,VALID,0.748438,
2010-07-08, 01:56:04,VALID,1005.26,VALID,0,VALID,87.6406,VALID,0,VALID,24.8113,VALID,336,VALID,0.0234375,
2010-07-08, 01:57:04,VALID,1005.3,VALID,0,VALID,87.7398,VALID,0,VALID,24.7919,VALID,346,VALID,0.558984,
2010-07-08, 01:58:04,VALID,1005.31,VALID,0,VALID,87.7016,VALID,0,VALID,24.7919,VALID,342,VALID,0.762891,
2010-07-08, 01:59:04,VALID,1005.34,VALID,0,VALID,87.6711,VALID,0,VALID,24.7724,VALID,341,VALID,0.407422,
2010-07-08, 02:00:04,VALID,1005.31,VALID,0,VALID,87.7703,VALID,0,VALID,24.7937,VALID,343,VALID,0.651563,
2010-07-08, 02:01:04,VALID,1005.29,VALID,0,VALID,87.8618,VALID,0,VALID,24.7724,VALID,350,VALID,0.746484,
2010-07-08, 02:02:04,VALID,1005.27,VALID,0,VALID,87.9152,VALID,0,VALID,24.8327,VALID,350,VALID,0.701563,
2010-07-08, 02:03:04,VALID,1005.23,VALID,0,VALID,87.816,VALID,0,VALID,24.8308,VALID,360,VALID,0.814844,
2010-07-08, 02:04:04,VALID,1005.19,VALID,0,VALID,87.7092,VALID,0,VALID,24.8697,VALID,351,VALID,0.291797,
2010-07-08, 02:05:04,VALID,1005.14,VALID,0,VALID,87.7016,VALID,0,VALID,24.8697,VALID,351,VALID,0.258594,
2010-07-08, 02:06:04,VALID,1005.16,VALID,0,VALID,87.7016,VALID,0,VALID,24.8697,VALID,351,VALID,0.221094,
2010-07-08, 02:07:04,VALID,1005.17,VALID,0,VALID,87.6406,VALID,0,VALID,24.8697,VALID,357,VALID,0.853516,
2010-07-08, 02:08:04,VALID,1005.18,VALID,0,VALID,87.6406,VALID,0,VALID,24.8892,VALID,354,VALID,0.655469,
2010-07-08, 02:09:04,VALID,1005.21,VALID,0,VALID,87.6635,VALID,0,VALID,24.8892,VALID,354,VALID,0.225,
2010-07-08, 02:10:04,VALID,1005.22,VALID,0,VALID,87.6329,VALID,0,VALID,24.8892,VALID,297,VALID,0.594531,
2010-07-08, 02:11:04,VALID,1005.21,VALID,0,VALID,87.5719,VALID,0,VALID,24.8892,VALID,306,VALID,0.238672,
2010-07-08, 02:12:04,VALID,1005.23,VALID,0,VALID,87.5185,VALID,0,VALID,24.9087,VALID,311,VALID,0,
2010-07-08, 02:13:04,VALID,1005.26,VALID,0,VALID,87.488,VALID,0,VALID,24.9087,VALID,310,VALID,0.293359,
2010-07-08, 02:14:04,VALID,1005.25,VALID,0,VALID,87.3888,VALID,0,VALID,24.8892,VALID,311,VALID,0.264844,
2010-07-08, 02:15:04,VALID,1005.3,VALID,0,VALID,87.3965,VALID,0,VALID,24.9087,VALID,8,VALID,0.612891,
2010-07-08, 02:16:04,VALID,1005.25,VALID,0,VALID,87.3278,VALID,0,VALID,24.9495,VALID,7,VALID,0.742188,
2010-07-08, 02:17:04,VALID,1005.25,VALID,0,VALID,87.2744,VALID,0,VALID,24.9282,VALID,1,VALID,0.791406,
2010-07-08, 02:18:04,VALID,1005.22,VALID,0,VALID,87.2439,VALID,0,VALID,24.9087,VALID,320,VALID,0.285547,
2010-07-08, 02:19:04,VALID,1005.21,VALID,0,VALID,87.2439,VALID,0,VALID,24.9087,VALID,334,VALID,0.451953,
2010-07-08, 02:20:04,VALID,1005.19,VALID,0,VALID,87.282,VALID,0,VALID,24.9087,VALID,336,VALID,0.252734,
2010-07-08, 02:21:04,VALID,1005.19,VALID,0,VALID,87.3812,VALID,0,VALID,24.8892,VALID,291,VALID,0.316406,
2010-07-08, 02:22:04,VALID,1005.19,VALID,0,VALID,87.3583,VALID,0,VALID,24.8892,VALID,355,VALID,0.627734,
2010-07-08, 02:23:04,VALID,1005.21,VALID,0,VALID,87.5185,VALID,0,VALID,24.8697,VALID,276,VALID,0.183594,
2010-07-08, 02:24:04,VALID,1005.19,VALID,0,VALID,87.5338,VALID,0,VALID,24.8716,VALID,332,VALID,0.986328,
2010-07-08, 02:25:04,VALID,1005.17,VALID,0,VALID,87.5872,VALID,0,VALID,24.8716,VALID,339,VALID,0.310937,
2010-07-08, 02:26:04,VALID,1005.15,VALID,0,VALID,87.5719,VALID,0,VALID,24.8503,VALID,350,VALID,0.750781,
2010-07-08, 02:27:04,VALID,1005.14,VALID,0,VALID,87.5261,VALID,0,VALID,24.8911,VALID,339,VALID,0.726953,
2010-07-08, 02:28:04,VALID,1005.14,VALID,0,VALID,87.4422,VALID,0,VALID,24.8892,VALID,341,VALID,1.0168,
2010-07-08, 02:29:04,VALID,1005.11,VALID,0,VALID,87.2973,VALID,0,VALID,24.9282,VALID,351,VALID,0.271875,
2010-07-08, 02:30:04,VALID,1005.13,VALID,0,VALID,87.2439,VALID,0,VALID,24.9282,VALID,351,VALID,0.241016,
2010-07-08, 02:31:04,VALID,1005.1,VALID,0,VALID,87.2668,VALID,0,VALID,24.9476,VALID,332,VALID,0.307031,
2010-07-08, 02:32:04,VALID,1005.13,VALID,0,VALID,87.2973,VALID,0,VALID,24.9263,VALID,290,VALID,0.0914062,
2010-07-08, 02:33:04,VALID,1005.12,VALID,0,VALID,87.2896,VALID,0,VALID,24.9476,VALID,290,VALID,0.0398437,
2010-07-08, 02:34:04,VALID,1005.16,VALID,0,VALID,87.2896,VALID,0,VALID,24.9263,VALID,320,VALID,0.570703,
2010-07-08, 02:35:04,VALID,1005.18,VALID,0,VALID,87.1905,VALID,0,VALID,24.9457,VALID,354,VALID,0.976172,
2010-07-08, 02:36:04,VALID,1005.19,VALID,0,VALID,87.0455,VALID,0,VALID,24.9671,VALID,355,VALID,0.973047,
2010-07-08, 02:37:04,VALID,1005.18,VALID,0,VALID,86.9769,VALID,0,VALID,24.9671,VALID,352,VALID,0.902344,
2010-07-08, 02:38:04,VALID,1005.18,VALID,0,VALID,86.8472,VALID,0,VALID,24.9671,VALID,348,VALID,0.342969,
2010-07-08, 02:39:04,VALID,1005.17,VALID,0,VALID,86.9235,VALID,0,VALID,24.9866,VALID,348,VALID,0.541406,
2010-07-08, 02:40:04,VALID,1005.16,VALID,0,VALID,86.9311,VALID,0,VALID,24.9866,VALID,360,VALID,0.589063,
2010-07-08, 02:41:04,VALID,1005.13,VALID,0,VALID,86.9235,VALID,0,VALID,25.0274,VALID,353,VALID,0.545703,
2010-07-08, 02:42:04,VALID,1005.14,VALID,0,VALID,86.8929,VALID,0,VALID,25.0274,VALID,346,VALID,1.05078,
2010-07-08, 02:43:04,VALID,1005.15,VALID,0,VALID,86.8319,VALID,0,VALID,25.0469,VALID,333,VALID,0.396875,
2010-07-08, 02:44:04,VALID,1005.17,VALID,0,VALID,86.748,VALID,0,VALID,25.0255,VALID,297,VALID,0.246094,
2010-07-08, 02:45:04,VALID,1005.18,VALID,0,VALID,86.809,VALID,0,VALID,25.0041,VALID,322,VALID,0.413672,
2010-07-08, 02:46:04,VALID,1005.25,VALID,0,VALID,86.8777,VALID,0,VALID,25.006,VALID,310,VALID,0.00625,
2010-07-08, 02:47:05,VALID,1005.28,VALID,0,VALID,87.0074,VALID,0,VALID,24.9847,VALID,341,VALID,0.448438,
2010-07-08, 02:48:05,VALID,1005.26,VALID,0,VALID,87.0303,VALID,0.100563,VALID,25.006,VALID,333,VALID,0.441797,
2010-07-08, 02:49:05,VALID,1005.27,VALID,0,VALID,87.1066,VALID,0,VALID,25.0079,VALID,355,VALID,0.610547,
2010-07-08, 02:50:05,VALID,1005.3,VALID,0,VALID,87.0303,VALID,0,VALID,25.0255,VALID,350,VALID,0.202734,
2010-07-08, 02:51:05,VALID,1005.28,VALID,0,VALID,86.9845,VALID,0,VALID,25.0255,VALID,350,VALID,0.536328,
2010-07-08, 02:52:05,VALID,1005.22,VALID,0,VALID,87.0303,VALID,0,VALID,25.0255,VALID,348,VALID,0.538281,
2010-07-08, 02:53:05,VALID,1005.18,VALID,0,VALID,87.1981,VALID,0,VALID,25.0079,VALID,347,VALID,0.660156,
2010-07-08, 02:54:05,VALID,1005.14,VALID,0,VALID,87.2896,VALID,0,VALID,24.9671,VALID,345,VALID,0.009375,
2010-07-08, 02:55:05,VALID,1005.07,VALID,0,VALID,87.4499,VALID,0,VALID,24.9476,VALID,346,VALID,0.221094,
2010-07-08, 02:56:05,VALID,1005.03,VALID,0,VALID,87.5261,VALID,0,VALID,24.9476,VALID,346,VALID,0.0796875,
2010-07-08, 02:57:05,VALID,1004.98,VALID,0,VALID,87.549,VALID,0,VALID,24.9282,VALID,346,VALID,0.0851562,
2010-07-08, 02:58:05,VALID,1004.94,VALID,0,VALID,87.7169,VALID,0,VALID,24.9087,VALID,346,VALID,0.00742187,
2010-07-08, 02:59:05,VALID,1004.94,VALID,0,VALID,87.7855,VALID,0.100563,VALID,24.9282,VALID,11,VALID,0.205859,
2010-07-08, 03:00:05,VALID,1004.94,VALID,0,VALID,87.755,VALID,0,VALID,24.9495,VALID,347,VALID,0.122656,
2010-07-08, 03:01:05,VALID,1004.92,VALID,0,VALID,87.8618,VALID,0.100563,VALID,24.9476,VALID,355,VALID,0,
2010-07-08, 03:02:05,VALID,1004.95,VALID,0,VALID,87.755,VALID,0,VALID,24.9282,VALID,330,VALID,0.000390625,
2010-07-08, 03:03:05,VALID,1004.94,VALID,0,VALID,87.7016,VALID,0,VALID,24.9476,VALID,352,VALID,0.380469,
2010-07-08, 03:04:05,VALID,1004.91,VALID,0,VALID,87.6787,VALID,0.100563,VALID,24.9671,VALID,334,VALID,0.390234,
2010-07-08, 03:05:05,VALID,1004.87,VALID,0,VALID,87.7474,VALID,0,VALID,24.9476,VALID,335,VALID,0.207031,
2010-07-08, 03:06:05,VALID,1004.88,VALID,0,VALID,87.6558,VALID,0.100563,VALID,24.9476,VALID,350,VALID,0.109375,
2010-07-08, 03:07:05,VALID,1004.88,VALID,0,VALID,87.694,VALID,0,VALID,24.9282,VALID,301,VALID,0.478516,
2010-07-08, 03:08:05,VALID,1004.85,VALID,0,VALID,87.7398,VALID,0,VALID,24.9282,VALID,293,VALID,0.137891,
2010-07-08, 03:09:05,VALID,1004.9,VALID,0,VALID,87.9076,VALID,0.100563,VALID,24.8873,VALID,293,VALID,0.0613281,
2010-07-08, 03:10:05,VALID,1004.9,VALID,0,VALID,87.9915,VALID,0,VALID,24.8892,VALID,2,VALID,0.758594,
2010-07-08, 03:11:05,VALID,1004.92,VALID,0,VALID,88.0449,VALID,0,VALID,24.9106,VALID,347,VALID,0.153516,
2010-07-08, 03:12:05,VALID,1004.88,VALID,0,VALID,88.0296,VALID,0,VALID,24.8892,VALID,6,VALID,0.623047,
2010-07-08, 03:13:05,VALID,1004.86,VALID,0,VALID,88.0754,VALID,0.100563,VALID,24.9087,VALID,354,VALID,0.762109,
2010-07-08, 03:14:05,VALID,1004.83,VALID,0,VALID,87.9228,VALID,0.100563,VALID,24.9476,VALID,346,VALID,0.887109,
2010-07-08, 03:15:05,VALID,1004.82,VALID,0,VALID,87.7932,VALID,0,VALID,24.9866,VALID,319,VALID,0.0957031,
2010-07-08, 03:16:05,VALID,1004.83,VALID,0,VALID,87.8389,VALID,0,VALID,25.006,VALID,296,VALID,0.0214844,
2010-07-08, 03:17:05,VALID,1004.82,VALID,0,VALID,87.7626,VALID,0,VALID,24.9866,VALID,360,VALID,0.829297,
2010-07-08, 03:18:05,VALID,1004.83,VALID,0,VALID,87.6482,VALID,0,VALID,25.006,VALID,330,VALID,0.694922,
2010-07-08, 03:19:05,VALID,1004.85,VALID,0,VALID,87.5567,VALID,0.100563,VALID,25.0255,VALID,338,VALID,0.0875,
2010-07-08, 03:20:05,VALID,1004.85,VALID,0,VALID,87.4651,VALID,0,VALID,25.0255,VALID,359,VALID,1.08359,
2010-07-08, 03:21:05,VALID,1004.86,VALID,0,VALID,87.3888,VALID,0,VALID,25.045,VALID,349,VALID,0.781641,
2010-07-08, 03:22:05,VALID,1004.8,VALID,0,VALID,87.3812,VALID,0.100563,VALID,25.0644,VALID,350,VALID,0.295703,
2010-07-08, 03:23:05,VALID,1004.76,VALID,0,VALID,87.3888,VALID,0.100563,VALID,25.045,VALID,350,VALID,0.178906,
2010-07-08, 03:24:05,VALID,1004.73,VALID,0,VALID,87.4651,VALID,0,VALID,25.0236,VALID,339,VALID,0.536328,
2010-07-08, 03:25:05,VALID,1004.69,VALID,0,VALID,87.3125,VALID,0.100563,VALID,25.0236,VALID,353,VALID,1.17148,
2010-07-08, 03:26:05,VALID,1004.68,VALID,0,VALID,87.1752,VALID,0.100563,VALID,25.0644,VALID,345,VALID,0.2,
2010-07-08, 03:27:05,VALID,1004.68,VALID,0,VALID,87.2896,VALID,0,VALID,25.0839,VALID,345,VALID,0,
2010-07-08, 03:28:05,VALID,1004.69,VALID,0,VALID,87.2896,VALID,0,VALID,25.1053,VALID,2,VALID,0.11875,
2010-07-08, 03:29:05,VALID,1004.74,VALID,0,VALID,87.1447,VALID,0,VALID,25.045,VALID,348,VALID,0.937891,
2010-07-08, 03:30:05,VALID,1004.75,VALID,0,VALID,87.1066,VALID,0,VALID,25.0858,VALID,355,VALID,1.20781,
2010-07-08, 03:31:05,VALID,1004.77,VALID,0,VALID,87.0303,VALID,0.100563,VALID,25.0839,VALID,352,VALID,1.15664,
2010-07-08, 03:32:05,VALID,1004.74,VALID,0,VALID,87.1218,VALID,0,VALID,25.1034,VALID,348,VALID,0.510938,
2010-07-08, 03:33:05,VALID,1004.79,VALID,0,VALID,87.1218,VALID,0.100563,VALID,25.1034,VALID,303,VALID,0.379297,
2010-07-08, 03:34:05,VALID,1004.79,VALID,0,VALID,87.1218,VALID,0,VALID,25.0839,VALID,344,VALID,0.2375,
2010-07-08, 03:35:05,VALID,1004.75,VALID,0,VALID,87.2286,VALID,0,VALID,25.0839,VALID,349,VALID,0.657031,
2010-07-08, 03:36:05,VALID,1004.76,VALID,0,VALID,87.2286,VALID,0,VALID,25.0431,VALID,358,VALID,0.387109,
2010-07-08, 03:37:05,VALID,1004.75,VALID,0,VALID,87.1447,VALID,0,VALID,25.1053,VALID,332,VALID,0.568359,
2010-07-08, 03:38:05,VALID,1004.73,VALID,0,VALID,87.0837,VALID,0,VALID,25.1034,VALID,342,VALID,0.309375,
2010-07-08, 03:39:05,VALID,1004.72,VALID,0,VALID,87.1447,VALID,0,VALID,25.1034,VALID,342,VALID,0.104297,
2010-07-08, 03:40:05,VALID,1004.73,VALID,0,VALID,87.1218,VALID,0,VALID,25.0839,VALID,344,VALID,0.252734,
2010-07-08, 03:41:05,VALID,1004.69,VALID,0,VALID,87.0608,VALID,0.100563,VALID,25.082,VALID,6,VALID,0.383203,
2010-07-08, 03:42:05,VALID,1004.68,VALID,0,VALID,87.0379,VALID,0,VALID,25.1442,VALID,339,VALID,0.648047,
2010-07-08, 03:43:05,VALID,1004.65,VALID,0,VALID,87.0379,VALID,0.100563,VALID,25.1442,VALID,338,VALID,0.457422,